GW1975 Weather Reports


Display with metric or nautical units.
time (UTC)temp
F
wind
direction
speed
MPH
gust
MPH
rain 1hr
in
rain 24hr
in
rain mn
in
humidity
%
barometer
mb
20260503235235 77 228 2.0 5.0 0.00 0.00 0.00 33 1010.0
20260503234736 77 231 3.0 4.0 0.00 0.00 0.00 33 1010.0
20260503234235 77 265 2.0 5.0 0.00 0.00 0.00 33 1010.0
20260503233735 77 235 3.0 3.0 0.00 0.00 0.00 33 1011.0
20260503233235 77 271 4.0 5.0 0.00 0.00 0.00 32 1011.0
20260503232735 77 247 1.0 5.0 0.00 0.00 0.00 31 1010.0
20260503232235 78 253 2.0 7.0 0.00 0.00 0.00 31 1011.0
20260503231735 77 230 3.0 4.0 0.00 0.00 0.00 31 1011.0
20260503231235 78 246 3.0 7.0 0.00 0.00 0.00 30 1011.0
20260503230735 78 260 2.0 8.0 0.00 0.00 0.00 29 1011.0
20260503230235 78 239 3.0 9.0 0.00 0.00 0.00 29 1011.0
20260503225735 78 246 4.0 7.0 0.00 0.00 0.00 30 1011.0
20260503225235 78 252 5.0 5.0 0.00 0.00 0.00 29 1011.0
20260503224736 78 278 5.0 9.0 0.00 0.00 0.00 29 1011.0
20260503224236 78 242 3.0 6.0 0.00 0.00 0.00 28 1011.0
20260503223735 78 241 3.0 9.0 0.00 0.00 0.00 29 1011.0
20260503223235 78 267 4.0 6.0 0.00 0.00 0.00 28 1011.0
20260503222736 78 236 4.0 9.0 0.00 0.00 0.00 27 1011.0
20260503222235 78 258 3.0 8.0 0.00 0.00 0.00 28 1012.0
20260503221735 78 245 5.0 9.0 0.00 0.00 0.00 27 1012.0
20260503221235 78 266 7.0 8.0 0.00 0.00 0.00 27 1011.0
20260503220735 78 272 6.0 7.0 0.00 0.00 0.00 26 1012.0
20260503220236 78 284 5.0 7.0 0.00 0.00 0.00 27 1012.0
20260503215735 79 259 4.0 10.0 0.00 0.00 0.00 28 1012.0
20260503215235 78 272 3.0 5.0 0.00 0.00 0.00 27 1012.0
20260503214735 77 269 5.0 6.0 0.00 0.00 0.00 27 1012.0
20260503214236 78 249 4.0 7.0 0.00 0.00 0.00 27 1012.0
20260503213735 78 265 9.0 11.0 0.00 0.00 0.00 27 1012.0
20260503213235 78 231 3.0 7.0 0.00 0.00 0.00 28 1012.0
20260503212735 77 173 2.0 6.0 0.00 0.00 0.00 29 1012.0
20260503212235 78 249 3.0 7.0 0.00 0.00 0.00 28 1012.0
20260503211735 78 253 4.0 5.0 0.00 0.00 0.00 29 1012.0
20260503211236 76 254 1.0 5.0 0.00 0.00 0.00 29 1012.0
20260503210735 76 256 3.0 4.0 0.00 0.00 0.00 29 1012.0
20260503210236 76 217 4.0 5.0 0.00 0.00 0.00 28 1012.0
20260503205735 76 275 6.0 9.0 0.00 0.00 0.00 29 1012.0
20260503205235 75 219 3.0 6.0 0.00 0.00 0.00 28 1012.0
20260503204735 75 238 2.0 6.0 0.00 0.00 0.00 29 1013.0
20260503204235 75 275 2.0 6.0 0.00 0.00 0.00 30 1013.0
20260503203737 77 249 3.0 7.0 0.00 0.00 0.00 30 1013.0
20260503203236 75 156 2.0 5.0 0.00 0.00 0.00 29 1013.0
20260503202735 75 251 4.0 6.0 0.00 0.00 0.00 31 1013.0
20260503202236 75 247 2.0 5.0 0.00 0.00 0.00 31 1013.0
20260503201735 75 247 1.0 3.0 0.00 0.00 0.00 32 1013.0
20260503201235 75 249 2.0 5.0 0.00 0.00 0.00 31 1013.0
20260503200736 74 257 2.0 4.0 0.00 0.00 0.00 32 1014.0
20260503200236 75 283 8.0 10.0 0.00 0.00 0.00 32 1014.0
20260503195735 74 276 4.0 5.0 0.00 0.00 0.00 32 1014.0
20260503195235 74 256 1.0 3.0 0.00 0.00 0.00 32 1014.0
20260503194736 73 206 1.0 4.0 0.00 0.00 0.00 35 1014.0
20260503194235 73 224 0.0 5.0 0.00 0.00 0.00 33 1014.0
20260503193736 73 179 0.0 3.0 0.00 0.00 0.00 34 1014.0
20260503193235 72 144 2.0 4.0 0.00 0.00 0.00 34 1014.0
20260503192735 72 293 1.0 5.0 0.00 0.00 0.00 33 1015.0
20260503192235 72 242 1.0 6.0 0.00 0.00 0.00 34 1015.0
20260503191735 72 298 3.0 3.0 0.00 0.00 0.00 34 1015.0
20260503191235 72 256 3.0 7.0 0.00 0.00 0.00 34 1015.0
20260503190735 71 93 2.0 3.0 0.00 0.00 0.00 34 1015.0
20260503190235 71 192 3.0 4.0 0.00 0.00 0.00 34 1015.0
20260503185736 71 208 1.0 7.0 0.00 0.00 0.00 32 1015.0
20260503185235 70 253 3.0 6.0 0.00 0.00 0.00 34 1015.0
20260503184735 70 244 2.0 3.0 0.00 0.00 0.00 35 1016.0
20260503184238 69 128 2.0 5.0 0.00 0.00 0.00 34 1016.0
20260503183735 69 239 0.0 3.0 0.00 0.00 0.00 35 1016.0
20260503183235 69 238 3.0 5.0 0.00 0.00 0.00 34 1016.0
20260503182735 69 223 3.0 5.0 0.00 0.00 0.00 34 1016.0
20260503182235 68 216 3.0 3.0 0.00 0.00 0.00 36 1016.0
20260503181736 68 251 3.0 5.0 0.00 0.00 0.00 36 1016.0
20260503181236 68 179 1.0 4.0 0.00 0.00 0.00 34 1017.0
20260503180735 68 226 3.0 5.0 0.00 0.00 0.00 34 1017.0
20260503180235 68 216 3.0 7.0 0.00 0.00 0.00 34 1017.0
20260503175735 68 247 2.0 5.0 0.00 0.00 0.00 37 1017.0
20260503175235 67 243 3.0 4.0 0.00 0.00 0.00 34 1017.0
20260503174736 67 188 1.0 3.0 0.00 0.00 0.00 36 1018.0
20260503174235 67 180 2.0 5.0 0.00 0.00 0.00 37 1018.0
20260503173735 67 331 0.0 7.0 0.00 0.00 0.00 37 1018.0
20260503173235 67 262 5.0 7.0 0.00 0.00 0.00 36 1018.0
20260503172735 66 202 1.0 3.0 0.00 0.00 0.00 38 1019.0
20260503172235 66 213 2.0 3.0 0.00 0.00 0.00 38 1019.0
20260503171735 66 235 4.0 4.0 0.00 0.00 0.00 39 1019.0
20260503171235 65 230 1.0 7.0 0.00 0.00 0.00 37 1019.0
20260503170736 65 228 2.0 5.0 0.00 0.00 0.00 39 1019.0
20260503170236 64 176 2.0 6.0 0.00 0.00 0.00 38 1019.0
20260503150736 62 205 0.0 5.0 0.00 0.00 0.00 46 1020.0
20260503150237 59 140 2.0 3.0 0.00 0.00 0.00 47 1021.0
20260503140235 56 220 2.0 5.0 0.00 0.00 0.00 51 1021.0
20260503131236 51 222 2.0 2.0 0.00 0.00 0.00 65 1021.0
20260503130736 50 230 1.0 3.0 0.00 0.00 0.00 65 1021.0
20260503130235 51 237 2.0 2.0 0.00 0.00 0.00 68 1021.0
20260503110736 41 151 0.0 1.0 0.00 0.00 0.00 85 1020.0
20260503110235 41 131 0.0 1.0 0.00 0.00 0.00 85 1020.0
20260503100235 41 113 0.0 0.0 0.00 0.00 0.00 86 1021.0
20260503090236 41 134 1.0 2.0 0.00 0.00 0.00 90 1021.0
20260503081235 41 114 0.0 1.0 0.00 0.00 0.00 92 1021.0
20260503080735 41 89 0.0 1.0 0.00 0.00 0.00 91 1021.0
20260503080236 42 135 0.0 0.0 0.00 0.00 0.00 92 1021.0
20260503072735 43 119 0.0 1.0 0.00 0.00 0.00 93 1021.0
20260503072235 42 127 0.0 1.0 0.00 0.00 0.00 92 1021.0
20260503071735 42 129 0.0 0.0 0.00 0.00 0.00 91 1021.0
20260503071235 42 129 0.0 0.0 0.00 0.00 0.00 91 1021.0
20260503070735 42 19 0.0 0.0 0.00 0.00 0.00 91 1021.0
20260503070236 43 142 0.0 0.0 0.00 0.00 0.00 91 1021.0
20260503060235 43 113 0.0 0.0 0.00 0.00 0.00 87 1022.0
20260503054735 44 157 0.0 0.0 0.00 0.00 0.00 87 1021.0
20260503054235 44 157 0.0 0.0 0.00 0.00 0.00 86 1021.0
20260503053738 44 142 0.0 0.0 0.00 0.00 0.00 86 1021.0
20260503053235 44 142 0.0 0.0 0.00 0.00 0.00 86 1022.0
20260503052736 44 125 0.0 0.0 0.00 0.00 0.00 83 1022.0
20260503052235 44 212 0.0 0.0 0.00 0.00 0.00 83 1022.0
20260503051735 44 212 0.0 0.0 0.00 0.00 0.00 82 1021.0
20260503051235 44 212 0.0 0.0 0.00 0.00 0.00 81 1022.0
20260503050735 44 212 0.0 0.0 0.00 0.00 0.00 81 1021.0
20260503050235 45 212 0.0 0.0 0.00 0.00 0.00 80 1021.0
20260503045736 45 157 0.0 0.0 0.00 0.00 0.00 80 1021.0
20260503045235 45 147 0.0 0.0 0.00 0.00 0.00 79 1021.0
20260503044735 45 345 0.0 0.0 0.00 0.00 0.00 79 1021.0
20260503044235 45 345 0.0 0.0 0.00 0.00 0.00 78 1021.0
20260503043735 45 142 0.0 0.0 0.00 0.00 0.00 77 1021.0
20260503043236 46 113 0.0 0.0 0.00 0.00 0.00 77 1021.0
20260503042735 46 113 0.0 0.0 0.00 0.00 0.00 77 1021.0
20260503042235 46 141 0.0 0.0 0.00 0.00 0.00 76 1021.0
20260503041735 46 141 0.0 0.0 0.00 0.00 0.00 76 1021.0
20260503041236 46 141 0.0 0.0 0.00 0.00 0.00 74 1021.0
20260503040735 47 117 0.0 0.0 0.00 0.00 0.00 73 1021.0
20260503040235 47 119 0.0 0.0 0.00 0.00 0.00 73 1021.0
20260503035734 47 119 0.0 0.0 0.00 0.00 0.00 73 1021.0
20260503035234 47 119 0.0 1.0 0.00 0.00 0.00 73 1021.0
20260503034735 47 104 0.0 1.0 0.00 0.00 0.00 71 1021.0
20260503034236 47 297 0.0 0.0 0.00 0.00 0.00 69 1021.0
20260503033735 48 297 0.0 0.0 0.00 0.00 0.00 69 1021.0
20260503033236 48 251 0.0 0.0 0.00 0.00 0.00 68 1021.0
20260503032735 48 122 0.0 0.0 0.00 0.00 0.00 68 1021.0
20260503032237 48 129 0.0 0.0 0.00 0.00 0.00 65 1021.0
20260503031735 48 141 0.0 0.0 0.00 0.00 0.00 64 1021.0
20260503031235 49 129 0.0 0.0 0.00 0.00 0.00 63 1021.0
20260503030735 49 129 0.0 0.0 0.00 0.00 0.00 63 1021.0
20260503030235 49 109 0.0 1.0 0.00 0.00 0.00 63 1021.0
20260503025735 49 118 0.0 1.0 0.00 0.00 0.00 63 1021.0
20260503025235 49 119 1.0 2.0 0.00 0.00 0.00 63 1021.0
20260503024735 50 113 0.0 0.0 0.00 0.00 0.00 65 1021.0
20260503024235 50 142 0.0 0.0 0.00 0.00 0.00 64 1021.0
20260503023735 50 76 0.0 0.0 0.00 0.00 0.00 62 1021.0
20260503023236 50 135 0.0 0.0 0.00 0.00 0.00 61 1021.0
20260503022735 51 130 0.0 0.0 0.00 0.00 0.00 61 1021.0
20260503022235 51 193 0.0 0.0 0.00 0.00 0.00 60 1021.0
20260503021735 51 217 0.0 0.0 0.00 0.00 0.00 60 1021.0
20260503021235 51 242 0.0 0.0 0.00 0.00 0.00 58 1021.0
20260503020735 51 142 0.0 0.0 0.00 0.00 0.00 58 1021.0
20260503020235 51 89 0.0 0.0 0.00 0.00 0.00 58 1021.0
20260503015736 51 129 0.0 0.0 0.00 0.00 0.00 57 1021.0
20260503015235 52 297 0.0 0.0 0.00 0.00 0.00 56 1021.0
20260503014735 52 129 0.0 0.0 0.00 0.00 0.00 56 1021.0
20260503014235 52 129 0.0 0.0 0.00 0.00 0.00 55 1021.0
20260503013735 53 130 0.0 0.0 0.00 0.00 0.00 55 1021.0
20260503013235 53 130 0.0 0.0 0.00 0.00 0.00 53 1021.0
20260503012735 53 130 0.0 0.0 0.00 0.00 0.00 51 1021.0
20260503012236 54 142 0.0 0.0 0.00 0.00 0.00 50 1021.0
20260503011735 54 129 0.0 0.0 0.00 0.00 0.00 50 1021.0
20260503011235 54 129 0.0 0.0 0.00 0.00 0.00 50 1021.0
20260503010735 55 150 0.0 0.0 0.00 0.00 0.00 47 1021.0
20260503010235 55 135 0.0 0.0 0.00 0.00 0.00 47 1021.0
20260503005735 56 130 0.0 0.0 0.00 0.00 0.00 47 1021.0
20260503005235 56 135 0.0 0.0 0.00 0.00 0.00 45 1021.0
20260503004735 57 230 0.0 0.0 0.00 0.00 0.00 43 1021.0
20260503004235 57 230 0.0 0.0 0.00 0.00 0.00 43 1021.0
20260503003736 57 217 0.0 0.0 0.00 0.00 0.00 42 1021.0
20260503003235 58 50 0.0 2.0 0.00 0.00 0.00 42 1021.0
20260503002735 58 321 0.0 2.0 0.00 0.00 0.00 39 1021.0
20260503002235 58 304 1.0 2.0 0.00 0.00 0.00 40 1020.0
20260503001736 58 306 1.0 2.0 0.00 0.00 0.00 39 1021.0
20260503001235 59 44 0.0 1.0 0.00 0.00 0.00 40 1021.0
20260503000735 59 329 2.0 2.0 0.00 0.00 0.00 39 1021.0
20260503000235 59 309 0.0 3.0 0.00 0.00 0.00 39 1021.0
20260502235735 59 290 1.0 3.0 0.00 0.00 0.00 38 1021.0